Location: Brownlee
(50.7397°N, 106.0159°W)
Time: 09:13:17
(UTC+00:00)

Envisat - Pass Details

Date: 08 December 2022
Orbit: 763 x 765 km, 98.2° (Epoch: 28 January)

Event Time Altitude Azimuth Distance (km) Brightness Sun altitude
Rises 12:51:56 0° 5° (N) 3,247 6.2 -18.0°
Reaches altitude 10° 12:54:39 10° 352° (N) 2,316 5.3 -17.6°
Enters shadow 12:56:54 19° 328° (NNW) 1,751 4.4 -17.3°
